Oklahoma City, OK

4:02 PM CDT on September 20, 2017 (GMT -0500)
Will Rogers World

Weather History for KOKC - November, 2013

Change the Weather History Date:

Thursday, November 28, 2013

  Actual Average Record
Temperature  
Mean Temperature 45 °F 45 °F  
Max Temperature 59 °F 56 °F 79 °F (1949)
Min Temperature 30 °F 35 °F 14 °F (1896)
Degree Days  
Heating Degree Days 20 20  
Month to date heating degree days 461 393  
Since 1 July heating degree days 625 557  
Cooling Degree Days 0 0  
Month to date cooling degree days 3 7  
Year to date cooling degree days 2072 2099  
Moisture  
Dew Point 24 °F    
Average Humidity 50    
Maximum Humidity 66    
Minimum Humidity 33    
Precipitation  
Precipitation 0.00 in 0.06 in 1.44 in (1908)
Month to date precipitation 0.96 1.87  
Year to date precipitation 51.52 34.53  
Snow  
Snow 0.00 in 0.00 in 3.70 in (2001)
Month to date snowfall 0.6 0.3  
Since 1 July snowfall 0.6 0.3  
Snow Depth 0.00 in    
Sea Level Pressure  
Sea Level Pressure 30.33 in    
Wind  
Wind Speed 9 mph (South)    
Max Wind Speed 18 mph    
Max Gust Speed 29 mph    
Visibility 10 miles    
Events      
T = Trace of Precipitation, MM = Missing Value Source: NWS Daily Summary

Daily Weather History Graph

Daily Weather History Graph

Search for Another Location

Airport or City:

Trip Planner

Search our weather history database for the weather conditions in past years. The results will help you decide how hot, cold, wet, or windy it might be!

Date:

Astronomy

Nov. 28, 2013 Rise Set
Actual Time 7:18 AM CST 5:18 PM CST
Civil Twilight 6:50 AM CST 5:46 PM CST
Nautical Twilight 6:19 AM CST 6:17 PM CST
Astronomical Twilight 5:48 AM CST 6:48 PM CST
Moon 2:31 AM CST (11/28) 2:20 PM CST (11/28)
Length of Visible Light 10h 55m
Length of Day
9h 59m
Waning Crescent, 22% of the Moon is Illuminated
Nov 28
Waning Crescent
Dec 2
New
Dec 9
First Quarter
Dec 17
Full
Dec 25
Last Quarter

Hourly Weather History & Observations

Time (CST) Temp. Windchill Dew Point Humidity Pressure Visibility Wind Dir Wind Speed Gust Speed Precip Events Conditions
12:52 AM 30.9 °F 21.2 °F 18.0 °F 59% 30.27 in 10.0 mi South 12.7 mph - N/A   Scattered Clouds
1:52 AM 30.9 °F 22.2 °F 19.0 °F 61% 30.27 in 10.0 mi South 10.4 mph - N/A   Scattered Clouds
2:52 AM 30.9 °F 23.5 °F 19.0 °F 61% 30.28 in 10.0 mi South 8.1 mph - N/A   Mostly Cloudy
3:52 AM 32.0 °F 24.2 °F 19.0 °F 59% 30.27 in 10.0 mi South 9.2 mph - N/A   Mostly Cloudy
4:52 AM 30.9 °F 22.8 °F 19.0 °F 61% 30.28 in 10.0 mi South 9.2 mph - N/A   Mostly Cloudy
5:52 AM 30.9 °F 22.8 °F 19.9 °F 64% 30.29 in 10.0 mi South 9.2 mph - N/A   Mostly Cloudy
6:52 AM 30.9 °F 21.7 °F 19.0 °F 61% 30.31 in 10.0 mi South 11.5 mph - N/A   Mostly Cloudy
7:52 AM 32.0 °F 27.5 °F 19.9 °F 61% 30.33 in 10.0 mi South 4.6 mph - N/A   Mostly Cloudy
8:52 AM 39.0 °F 31.4 °F 23.0 °F 53% 30.34 in 10.0 mi SSW 12.7 mph - N/A   Mostly Cloudy
9:52 AM 44.1 °F 39.0 °F 26.1 °F 49% 30.35 in 10.0 mi SSW 9.2 mph - N/A   Mostly Cloudy
10:52 AM 50.0 °F - 28.0 °F 43% 30.35 in 10.0 mi SSW 15.0 mph - N/A   Mostly Cloudy
11:52 AM 54.0 °F - 28.0 °F 37% 30.34 in 10.0 mi SSW 12.7 mph - N/A   Mostly Cloudy
12:52 PM 57.0 °F - 28.0 °F 33% 30.31 in 10.0 mi SSW 10.4 mph 21.9 mph N/A   Mostly Cloudy
1:52 PM 57.9 °F - 28.0 °F 32% 30.30 in 10.0 mi SSW 11.5 mph - N/A   Mostly Cloudy
2:52 PM 55.9 °F - 28.0 °F 34% 30.30 in 10.0 mi SW 11.5 mph - N/A   Mostly Cloudy
3:52 PM 55.9 °F - 28.0 °F 34% 30.31 in 10.0 mi SW 10.4 mph - N/A   Mostly Cloudy
4:52 PM 52.0 °F - 28.0 °F 40% 30.33 in 10.0 mi Calm Calm - N/A   Scattered Clouds
5:52 PM 45.0 °F 42.6 °F 27.0 °F 49% 30.35 in 10.0 mi South 4.6 mph - N/A   Scattered Clouds
6:52 PM 44.1 °F 40.8 °F 27.0 °F 51% 30.37 in 10.0 mi South 5.8 mph - N/A   Scattered Clouds
7:52 PM 37.0 °F 31.6 °F 26.1 °F 65% 30.40 in 10.0 mi SSE 6.9 mph - N/A   Scattered Clouds
8:52 PM 37.9 °F 34.4 °F 25.0 °F 60% 30.40 in 10.0 mi South 4.6 mph - N/A   Scattered Clouds
9:52 PM 35.1 °F 31.0 °F 24.1 °F 64% 30.41 in 10.0 mi SSE 4.6 mph - N/A   Clear
10:52 PM 32.0 °F 26.4 °F 23.0 °F 69% 30.42 in 10.0 mi South 5.8 mph - N/A   Clear
11:52 PM 33.1 °F 26.9 °F 23.0 °F 66% 30.41 in 10.0 mi SSE 6.9 mph - N/A   Clear